Regional Weather Roundup
Issued by NWS

Home | Current Version | Previous Version | Text Only | Print | Product List | Glossary On
Versions: 1 2 3 4 5 6 7 8 9 10 11 12 13 14 15 16 17 18 19 20 21 22 23 24 25 26 27 28 29 30 31 32 33 34 35 36 37 38 39 40 41 42 43 44 45 46 47 48 49 50
000
ASUS44 KFWD 222303
RWRTX
NORTH TEXAS HOURLY WEATHER ROUNDUP
NATIONAL WEATHER SERVICE FORT WORTH TX
500 PM CST MON DEC 22 2014

NOTE: "FAIR" INDICATES FEW OR NO CLOUDS BELOW 12,000 FEET WITH NO
SIGNIFICANT WEATHER AND/OR OBSTRUCTIONS TO VISIBILITY.

TXZ118-119-230000-
DALLAS/FORT WORTH METROPLEX

CITY           SKY/WX    TMP DP  RH WIND       PRES   REMARKS
DFW AIRPORT    CLOUDY    59  45  59 NW16      29.63R
DALLAS LOVE    CLOUDY    59  45  59 NW16      29.62R
FTW MEACHAM    CLOUDY    59  43  55 NW16      29.62R
DAL-EXECUTIVE  CLOUDY    60  45  57 NW14      29.61R
FTW-ALLIANCE   CLOUDY    57  43  59 NW7       29.62S
FTW-SPINKS     MOCLDY    61  45  55 N9        29.64R
ARLINGTON      CLOUDY    61  42  49 NW14      29.62R
GRAND PRAIRIE  CLEAR     61  43  51 NW5       29.64R
ADDISON        CLOUDY    59  45  58 NW16      29.63
LANCASTER      CLOUDY    58  44  60 NW14      29.62R
$$

TXZ091>094-102>105-117-120-121-131>134-230000-
NORTH CENTRAL TEXAS

CITY           SKY/WX    TMP DP  RH WIND       PRES   REMARKS
SHRMAN/DENISON MOCLDY    58  48  70 CALM      29.63R
BRIDGEPORT     CLOUDY    57  45  63 W5        29.66R
DECATUR        CLOUDY    56  41  57 NW6       29.63S
DENTON         CLOUDY    57  45  64 NW7       29.63R
MCKINNEY       CLOUDY    59  45  59 NW10      29.61R
ROCKWALL       CLOUDY    61  47  59 NW9       29.61R
TERRELL        CLOUDY    62  45  53 W9        29.61R
WAXAHACHIE     CLOUDY    59  46  60 NW12      29.63R
CLEBURNE       CLOUDY    61  45  55 NW10      29.62F
GRANBURY       CLOUDY    61  44  53 NW10      29.63F
$$

TXZ083>090-098>101-113>116-127>130-139>142-154-155-230000-
WESTERN NORTH TEXAS

CITY           SKY/WX    TMP DP  RH WIND       PRES   REMARKS
WICHITA FALLS  CLOUDY    56  39  53 NW6       29.64R
WF-KICKAPOO    CLOUDY    58  35  41 NW6       29.66R
VERNON         CLOUDY    57  30  35 NW7       29.66S
ABILENE        CLOUDY    60  35  39 N12       29.67R
ABILENE-DYESS  CLOUDY    60  36  41 N10       29.65S
BRECKENRIDGE   CLOUDY    60  37  42 N6        29.65S HAZE
MINERAL WELLS  CLOUDY    57  41  55 N9        29.63F
STEPHENVILLE   CLOUDY    59  40  48 N12       29.65S
COMANCHE       CLOUDY    60  42  51 NE3       29.64R
COLEMAN        CLOUDY    62  40  44 N3        29.65S
BRADY          CLEAR     66  37  34 N7        29.63S
$$

TXZ143>147-156>162-174-175-230000-
CENTRAL TEXAS

CITY           SKY/WX    TMP DP  RH WIND       PRES   REMARKS
WACO           CLOUDY    63  41  44 N14       29.61R
WACO-MCGREGOR  CLOUDY    64  39  39 N8        29.63R
CORSICANA      CLOUDY    64  41  42 NW13      29.60R
MEXIA          CLOUDY    67  43  41 NW10      29.58S
HEARNE         CLOUDY    66  55  66 S8        29.61R
CAMERON        CLOUDY    68  55  62 SW9       29.61R
TEMPLE         CLOUDY    66  37  34 NW7       29.61R
KILLEEN        CLOUDY    64  39  39 N8        29.63R
KILLEEN-SKYLRK CLOUDY    66  36  32 NW8       29.62R
FORT HOOD      CLOUDY    65  38  37 NW8       29.62R
GATESVILLE     MOCLDY    64  41  42 CALM      29.64S
HAMILTON       CLOUDY    64  39  40 NW9       29.63S
$$

TXZ095>097-106>112-122>126-135>138-148>153-164>167-230000-
EAST TEXAS

CITY           SKY/WX    TMP DP  RH WIND       PRES   REMARKS
PARIS          MOCLDY    61  46  59 W9        29.59R
SULPHUR SPRNGS MOCLDY    63  45  51 W12       29.61R
MOUNT PLEASANT PTCLDY    64  47  53 W7        29.59R
MINEOLA        PTCLDY    66  41  39 W6        29.59
TYLER          CLOUDY    66  47  50 W6        29.57R
LONGVIEW       PTCLDY    67  49  52 W7        29.56R
MARSHALL       PTCLDY    68  55  63 SW3       29.58R
PALESTINE      CLOUDY    66  52  59 SW3       29.59S
JACKSONVILLE   CLOUDY    65  51  60 SW3       29.60R
HENDERSON      PTCLDY    65  51  60 CALM      29.59R
NACOGDOCHES    CLOUDY    64  54  68 SW3       29.60R
LUFKIN         MOCLDY    69  55  60 SW7       29.59R
$$

SUPPLEMENTAL OBSERVATIONS (CENTRAL)

CITY           SKY/WX    TMP DP  RH WIND       PRES   REMARKS
$$

SUPPLEMENTAL OBSERVATIONS (WEST)

CITY           SKY/WX    TMP DP  RH WIND       PRES   REMARKS
$$

SUPPLEMENTAL OBSERVATIONS (EAST)

CITY           SKY/WX    TMP DP  RH WIND       PRES   REMARKS
$$

SUPPLEMENTAL OBSERVATIONS ARE A COLLECTION OF AUTOMATED INSTRUMENTS
THAT ARE MAINTAINED BY A VARIETY OF FEDERAL AND STATE AGENCIES.
CERTAIN ELEMENTS...SUCH AS HUMIDITY VALUES AND SUSTAINED WIND
SPEEDS...MAY BE APPROXIMATED.




USA.gov is the U.S. government's official web portal to all federal, state and local government web resources and services.